Tracking 30505 objects as of 23-May-2025
HD Live streaming from Space Station
objects crossing your sky now

STARLINK-33831

Track STARLINK-33831 now!
10-day predictions
STARLINK-33831 is classified as:


NORAD ID: 63595
Int'l Code: 2025-076AC
Perigee: 450.3 km
Apogee: 452.1 km
Inclination: 43.0 °
Period: 93.5 minutes
Semi major axis: 6822 km
RCS: Unknown
Launch date: April 14, 2025
Source: United States (US)
Launch site: AIR FORCE EASTERN TEST RANGE (AFETR)
Your satellite tracking list
Your tracking list is empty




NASA's NSSDC Master Catalog

Two Line Element Set (TLE):
1 63595U 25076AC  25142.91668981 -.00009781  00000-0 -22717-3 0  9999
2 63595  43.0000 164.5964 0001295 261.1481 354.0090 15.40700510  7159
Source of the keplerian elements: AFSPC